Weather History for Crystal River, FL

Change the Weather History Date:

Tuesday, January 29, 2013

  Actual Average (KBKV) Record (KBKV)
Temperature  
Mean Temperature 70 °F -  
Max Temperature 82 °F 67 °F 84 °F (2002)
Min Temperature 57 °F 44 °F 26 °F (2004)
Cooling Degree Days 4    
Growing Degree Days 20 (Base 50)    
Moisture  
Dew Point 63 °F    
Average Humidity 82    
Maximum Humidity 100    
Minimum Humidity 45    
Precipitation  
Precipitation 0.00 in - - ()
Sea Level Pressure  
Sea Level Pressure 30.17 in    
Wind  
Wind Speed 3 mph (SSE)    
Max Wind Speed 13 mph    
Max Gust Speed 17 mph    
Visibility 8 miles    
Events Fog    
Averages and records for this station are not official NWS values.
T = Trace of Precipitation, MM = Missing Value Source: NWS Daily Summary

Daily Weather History Graph

Daily Weather History Graph

Search for Another Location

Airport:

Trip Planner

Search our weather history database for the weather conditions in past years. The results will help you decide how hot, cold, wet, or windy it might be!

Date:

Astronomy

Jan. 29, 2013 Rise Set
Actual Time 7:20 AM EST 6:07 PM EST
Civil Twilight 6:55 AM EST 6:31 PM EST
Nautical Twilight 6:26 AM EST 7:00 PM EST
Astronomical Twilight 5:58 AM EST 7:28 PM EST
Moon 8:43 PM EST (1/29) 8:32 AM EST (1/29)
Length of Visible Light 11h 36m
Length of Day
10h 46m
Waning Gibbous, 94% of the Moon is Illuminated
Jan 29
Waning Gibbous
Feb 3
Last Quarter
Feb 10
New
Feb 17
First Quarter
Feb 25
Full

Hourly Weather History & Observations

Time (EST) Temp. Heat Index Dew Point Humidity Pressure Visibility Wind Dir Wind Speed Gust Speed Precip Events Conditions
12:15 AM 66.2 °F - 62.6 °F 88% 30.26 in 10.0 mi East 3.5 mph - N/A   Mostly Cloudy
12:35 AM 64.4 °F - 62.6 °F 94% 30.26 in 10.0 mi East 3.5 mph - N/A   Scattered Clouds
12:55 AM 64.4 °F - 62.6 °F 94% 30.25 in 10.0 mi East 3.5 mph - N/A   Clear
1:15 AM 64.4 °F - 62.6 °F 94% 30.25 in 10.0 mi East 3.5 mph - N/A   Clear
1:35 AM 62.6 °F - 62.6 °F 100% 30.24 in 10.0 mi East 3.5 mph - N/A   Clear
1:55 AM 62.6 °F - 62.6 °F 100% 30.24 in 10.0 mi Calm Calm - N/A   Clear
2:15 AM 62.6 °F - 62.6 °F 100% 30.24 in 10.0 mi East 4.6 mph - N/A   Clear
2:35 AM 62.6 °F - 62.6 °F 100% 30.23 in 10.0 mi Calm Calm - N/A   Clear
2:55 AM 62.6 °F - 62.6 °F 100% 30.23 in 10.0 mi Calm Calm - N/A   Clear
3:15 AM 60.8 °F - 60.8 °F 100% 30.23 in 7.0 mi Calm Calm - N/A   Clear
3:35 AM 60.8 °F - 60.8 °F 100% 30.23 in 7.0 mi Calm Calm - N/A   Clear
3:55 AM 60.8 °F - 60.8 °F 100% 30.22 in 4.0 mi Calm Calm - N/A   Clear
4:15 AM 60.8 °F - 60.8 °F 100% 30.22 in 0.8 mi Calm Calm - N/A   Mostly Cloudy
4:35 AM 59.0 °F - 59.0 °F 100% 30.22 in 0.2 mi Calm Calm - N/A Fog Fog
4:55 AM 59.0 °F - 59.0 °F 100% 30.22 in 0.2 mi Calm Calm - N/A Fog Fog
5:15 AM 57.2 °F - 57.2 °F 100% 30.22 in 0.2 mi Calm Calm - N/A Fog Fog
5:35 AM 57.2 °F - 57.2 °F 100% 30.22 in 3.0 mi Calm Calm - N/A   Overcast
5:55 AM 60.8 °F - 60.8 °F 100% 30.22 in 0.8 mi Calm Calm - N/A   Overcast
6:15 AM 60.8 °F - 60.8 °F 100% 30.23 in 1.0 mi Calm Calm - N/A   Overcast
6:35 AM 60.8 °F - 60.8 °F 100% 30.23 in 0.8 mi Calm Calm - N/A   Overcast
7:15 AM 62.6 °F - 62.6 °F 100% 30.23 in 1.2 mi SE 5.8 mph - N/A   Overcast
7:35 AM 62.6 °F - 62.6 °F 100% 30.23 in 0.5 mi Calm Calm - N/A Fog Fog
7:55 AM 62.6 °F - 62.6 °F 100% 30.24 in 0.5 mi SE 3.5 mph - N/A Fog Fog
8:15 AM 62.6 °F - 62.6 °F 100% 30.23 in 0.8 mi SE 3.5 mph - N/A   Overcast
8:35 AM 62.6 °F - 62.6 °F 100% 30.23 in 2.0 mi SE 3.5 mph - N/A   Overcast
8:55 AM 64.4 °F - 64.4 °F 100% 30.24 in 2.5 mi Calm Calm - N/A   Overcast
9:15 AM 64.4 °F - 64.4 °F 100% 30.24 in 5.0 mi SSE 5.8 mph - N/A   Overcast
9:35 AM 66.2 °F - 64.4 °F 94% 30.24 in 7.0 mi SE 3.5 mph - N/A   Overcast
9:55 AM 68.0 °F - 64.4 °F 88% 30.23 in 10.0 mi SE 4.6 mph - N/A   Overcast
10:15 AM 69.8 °F - 66.2 °F 88% 30.23 in 10.0 mi SE 5.8 mph - N/A   Overcast
10:35 AM 71.6 °F - 66.2 °F 83% 30.22 in 10.0 mi SSE 6.9 mph - N/A   Overcast
10:55 AM 73.4 °F - 66.2 °F 78% 30.22 in 10.0 mi SE 5.8 mph - N/A   Mostly Cloudy
11:15 AM 75.2 °F - 66.2 °F 73% 30.21 in 10.0 mi SSE 6.9 mph - N/A   Scattered Clouds
11:35 AM 77.0 °F - 64.4 °F 65% 30.21 in 10.0 mi ESE 4.6 mph - N/A   Scattered Clouds
11:55 AM 78.8 °F - 64.4 °F 61% 30.20 in 10.0 mi SSE 5.8 mph - N/A   Scattered Clouds
12:15 PM 78.8 °F - 62.6 °F 57% 30.18 in 10.0 mi SSE 8.1 mph - N/A   Scattered Clouds
12:35 PM 80.6 °F 81.8 °F 62.6 °F 54% 30.17 in 10.0 mi SE 5.8 mph - N/A   Scattered Clouds
12:55 PM 80.6 °F 81.8 °F 62.6 °F 54% 30.16 in 10.0 mi SSE 9.2 mph - N/A   Clear
1:15 PM 80.6 °F 81.8 °F 62.6 °F 54% 30.15 in 10.0 mi SE 6.9 mph - N/A   Clear
1:35 PM 80.6 °F 81.8 °F 62.6 °F 54% 30.14 in 10.0 mi SSE 5.8 mph - N/A   Mostly Cloudy
1:55 PM 80.6 °F 81.5 °F 60.8 °F 51% 30.13 in 10.0 mi SE 9.2 mph - N/A   Mostly Cloudy
2:15 PM 80.6 °F 81.5 °F 60.8 °F 51% 30.12 in 10.0 mi Calm Calm - N/A   Mostly Cloudy
2:35 PM 82.4 °F 82.9 °F 60.8 °F 48% 30.12 in 10.0 mi Calm Calm - N/A   Mostly Cloudy
2:55 PM 82.4 °F 82.5 °F 59.0 °F 45% 30.11 in 10.0 mi SW 4.6 mph - N/A   Scattered Clouds
3:15 PM 82.4 °F 83.4 °F 62.6 °F 51% 30.11 in 10.0 mi West 12.7 mph 17.3 mph N/A   Mostly Cloudy
3:35 PM 78.8 °F - 62.6 °F 57% 30.11 in 10.0 mi WSW 8.1 mph - N/A   Scattered Clouds
3:55 PM 80.6 °F 81.8 °F 62.6 °F 54% 30.11 in 10.0 mi SW 8.1 mph - N/A   Scattered Clouds
4:15 PM 78.8 °F - 62.6 °F 57% 30.11 in 10.0 mi West 8.1 mph - N/A   Mostly Cloudy
4:35 PM 78.8 °F - 62.6 °F 57% 30.11 in 10.0 mi WSW 6.9 mph - N/A   Overcast
4:55 PM 78.8 °F - 62.6 °F 57% 30.11 in 10.0 mi WSW 4.6 mph - N/A   Mostly Cloudy
5:15 PM 77.0 °F - 64.4 °F 65% 30.11 in 10.0 mi WSW 5.8 mph - N/A   Mostly Cloudy
5:35 PM 73.4 °F - 64.4 °F 73% 30.11 in 10.0 mi WSW 6.9 mph - N/A   Scattered Clouds
5:55 PM 71.6 °F - 64.4 °F 78% 30.12 in 10.0 mi WSW 4.6 mph - N/A   Mostly Cloudy
6:15 PM 71.6 °F - 64.4 °F 78% 30.11 in 10.0 mi WSW 3.5 mph - N/A   Overcast
6:35 PM 71.6 °F - 64.4 °F 78% 30.11 in 10.0 mi Calm Calm - N/A   Overcast
6:55 PM 71.6 °F - 64.4 °F 78% 30.11 in 10.0 mi Calm Calm - N/A   Scattered Clouds
7:15 PM 69.8 °F - 64.4 °F 83% 30.11 in 10.0 mi Calm Calm - N/A   Mostly Cloudy
7:35 PM 69.8 °F - 64.4 °F 83% 30.11 in 10.0 mi Calm Calm - N/A   Overcast
7:55 PM 69.8 °F - 64.4 °F 83% 30.11 in 10.0 mi Calm Calm - N/A   Overcast
8:15 PM 69.8 °F - 64.4 °F 83% 30.10 in 10.0 mi Calm Calm - N/A   Overcast
8:35 PM 69.8 °F - 64.4 °F 83% 30.10 in 10.0 mi Calm Calm - N/A   Overcast
8:55 PM 68.0 °F - 64.4 °F 88% 30.10 in 10.0 mi Calm Calm - N/A   Mostly Cloudy
9:15 PM 68.0 °F - 62.6 °F 83% 30.10 in 10.0 mi Calm Calm - N/A   Mostly Cloudy
9:35 PM 68.0 °F - 62.6 °F 83% 30.10 in 10.0 mi Calm Calm - N/A   Scattered Clouds
9:55 PM 68.0 °F - 64.4 °F 88% 30.10 in 10.0 mi Calm Calm - N/A   Overcast
10:15 PM 68.0 °F - 64.4 °F 88% 30.11 in 10.0 mi Calm Calm - N/A   Overcast
10:35 PM 68.0 °F - 64.4 °F 88% 30.11 in 10.0 mi Calm Calm - N/A   Overcast
10:55 PM 69.8 °F - 64.4 °F 83% 30.11 in 10.0 mi Calm Calm - N/A   Overcast
11:15 PM 69.8 °F - 64.4 °F 83% 30.11 in 10.0 mi Calm Calm - N/A   Overcast
11:35 PM 69.8 °F - 64.4 °F 83% 30.11 in 10.0 mi Calm Calm - N/A   Overcast
11:55 PM 69.8 °F - 64.4 °F 83% 30.10 in 10.0 mi Calm Calm - N/A   Overcast